Terug naar catalogus

GLOBALSTAR M105

ActiefCommunicatieLEO
NORAD 100331·PAYLOAD·🇺🇸 United States

Gelanceerd Aug 16, 2026 vanaf Cape Canaveral Space Force Station

Loading…

Volgende Passages (komende 24 uur)

TLE

VersSource: Space-Track

Epoch: Sep 14, 2026, 14:30 UTC

1 A0331U 26185G   26257.60483673  .00000225  00000-0  79601-4 0  9994
2 A0331  51.9950 110.8855 0008844 328.2922  31.7501 14.63940762  4326

Volg GLOBALSTAR M105 in realtime met AllMySat

Download on the App Store